Change the Weather History Date:

Sunday, January 19, 2014

  Actual Average Record
Temperature  
Mean Temperature 41 °F 29 °F  
Max Temperature 65 °F 45 °F 72 °F (1986)
Min Temperature 17 °F 13 °F -22 °F (1943)
Degree Days  
Heating Degree Days 24 36  
Month to date heating degree days 657 696  
Since 1 July heating degree days 2832 3009  
Cooling Degree Days 0 0  
Month to date cooling degree days 0 0  
Year to date cooling degree days 0 0  
Moisture  
Dew Point 11 °F    
Average Humidity 43    
Maximum Humidity 74    
Minimum Humidity 11    
Precipitation  
Precipitation 0.00 in 0.01 in 0.63 in (1938)
Month to date precipitation 0.04 0.14  
Year to date precipitation 0.04 0.14  
Sea Level Pressure  
Sea Level Pressure 30.02 in    
Wind  
Wind Speed 7 mph (WSW)    
Max Wind Speed 16 mph    
Max Gust Speed 19 mph    
Visibility 10 miles    
Events      
T = Trace of Precipitation, MM = Missing Value Source: NWS Daily Summary

Daily Weather History Graph

Daily Weather History Graph

Search for Another Location

Airport or City:

Trip Planner

Search our weather history database for the weather conditions in past years. The results will help you decide how hot, cold, wet, or windy it might be!

Date:

Astronomy

Jan. 19, 2014 Rise Set
Actual Time 7:04 AM MST 4:59 PM MST
Civil Twilight 6:35 AM MST 5:27 PM MST
Nautical Twilight 6:03 AM MST 6:00 PM MST
Astronomical Twilight 5:31 AM MST 6:31 PM MST
Moon 8:35 PM MST (1/19) 8:38 AM MST (1/19)
Length of Visible Light 10h 52m
Length of Day
9h 55m
Waning Gibbous, 89% of the Moon is Illuminated
Jan 19
Waning Gibbous
Jan 23
Last Quarter
Jan 30
New
Feb 6
First Quarter
Feb 14
Full

Hourly Weather History & Observations

Time (MST) Temp. Windchill Dew Point Humidity Pressure Visibility Wind Dir Wind Speed Gust Speed Precip Events Conditions
12:53 AM 23.0 °F 15.8 °F 14.0 °F 68% 30.12 in 10.0 mi West 5.8 mph - N/A   Clear
1:53 AM 23.0 °F 15.8 °F 12.9 °F 65% 30.12 in 10.0 mi WNW 5.8 mph - N/A   Clear
2:53 AM 23.0 °F 14.7 °F 12.9 °F 65% 30.10 in 10.0 mi West 6.9 mph - N/A   Clear
3:53 AM 19.9 °F - 12.0 °F 71% 30.09 in 10.0 mi Calm Calm - N/A   Clear
4:53 AM 18.0 °F 6.9 °F 10.9 °F 74% 30.09 in 10.0 mi SW 9.2 mph - N/A   Clear
5:53 AM 21.0 °F 13.4 °F 12.0 °F 68% 30.09 in 10.0 mi SW 5.8 mph - N/A   Clear
6:53 AM 21.9 °F 12.5 °F 10.9 °F 63% 30.13 in 10.0 mi West 8.1 mph - N/A   Clear
7:53 AM 26.1 °F 17.6 °F 12.9 °F 58% 30.12 in 10.0 mi West 8.1 mph - N/A   Clear
8:53 AM 33.1 °F 25.5 °F 14.0 °F 46% 30.11 in 10.0 mi West 9.2 mph - N/A   Clear
9:53 AM 41.0 °F 34.3 °F 14.0 °F 33% 30.09 in 10.0 mi West 11.5 mph - N/A   Clear
10:53 AM 51.1 °F - 12.9 °F 22% 30.03 in 10.0 mi West 12.7 mph - N/A   Clear
11:53 AM 57.0 °F - 12.0 °F 17% 29.98 in 10.0 mi West 12.7 mph - N/A   Clear
12:53 PM 60.1 °F - 9.0 °F 13% 29.94 in 10.0 mi West 8.1 mph - N/A   Clear
1:53 PM 63.0 °F - 6.1 °F 11% 29.90 in 10.0 mi Variable 4.6 mph - N/A   Clear
2:53 PM 64.9 °F - 8.1 °F 11% 29.90 in 10.0 mi NNE 4.6 mph - N/A   Clear
3:53 PM 64.0 °F - 8.1 °F 11% 29.92 in 10.0 mi NE 6.9 mph - N/A   Clear
4:53 PM 57.0 °F - 7.0 °F 14% 29.94 in 10.0 mi ENE 4.6 mph - N/A   Clear
5:53 PM 37.9 °F 35.5 °F 9.0 °F 30% 29.99 in 10.0 mi SSE 3.5 mph - N/A   Clear
6:53 PM 28.0 °F 20.8 °F 10.0 °F 47% 30.02 in 10.0 mi SW 6.9 mph - N/A   Clear
7:53 PM 28.9 °F 22.8 °F 10.0 °F 45% 30.01 in 10.0 mi SW 5.8 mph - N/A   Clear
8:53 PM 28.0 °F 21.7 °F 10.0 °F 47% 29.99 in 10.0 mi SW 5.8 mph - N/A   Clear
9:53 PM 28.9 °F 21.1 °F 12.0 °F 49% 29.98 in 10.0 mi SW 8.1 mph - N/A   Clear
10:53 PM 26.1 °F 16.8 °F 10.9 °F 53% 29.96 in 10.0 mi SW 9.2 mph - N/A   Clear
11:53 PM 23.0 °F 15.8 °F 10.0 °F 58% 29.94 in 10.0 mi SW 5.8 mph - N/A   Clear